TimeEDT,TemperatureF,Dew PointF,Humidity,Sea Level PressureIn,VisibilityMPH,Wind Direction,Wind SpeedMPH,Gust SpeedMPH,PrecipitationIn,Events,Conditions,WindDirDegrees,DateUTC
12:52 AM,34.0,28.0,79,29.92,10.0,NW,6.9,-,N/A,,Overcast,310,2013-03-26 04:52:00
1:52 AM,34.0,27.0,75,29.94,10.0,NNW,8.1,-,N/A,,Overcast,330,2013-03-26 05:52:00
2:52 AM,33.1,27.0,78,29.95,10.0,NNW,8.1,-,N/A,,Overcast,330,2013-03-26 06:52:00
3:52 AM,33.1,27.0,78,29.96,10.0,NW,8.1,-,N/A,,Overcast,320,2013-03-26 07:52:00
4:52 AM,33.1,27.0,78,29.96,10.0,NW,6.9,-,N/A,,Overcast,310,2013-03-26 08:52:00
5:52 AM,32.0,27.0,82,29.97,10.0,NW,8.1,-,N/A,,Overcast,310,2013-03-26 09:52:00
6:52 AM,32.0,26.1,79,29.99,10.0,NW,8.1,-,N/A,,Overcast,310,2013-03-26 10:52:00
7:52 AM,32.0,26.1,79,30.02,10.0,NW,8.1,-,N/A,,Overcast,310,2013-03-26 11:52:00
8:52 AM,33.1,26.1,75,30.04,10.0,NW,9.2,-,N/A,,Overcast,320,2013-03-26 12:52:00
9:52 AM,34.0,27.0,75,30.06,10.0,NW,10.4,-,N/A,,Overcast,320,2013-03-26 13:52:00
10:52 AM,37.0,28.0,70,30.06,10.0,WNW,10.4,-,N/A,,Overcast,290,2013-03-26 14:52:00
11:52 AM,39.0,27.0,62,30.07,10.0,NW,12.7,19.6,N/A,,Mostly Cloudy,310,2013-03-26 15:52:00
12:52 PM,41.0,26.1,55,30.07,10.0,WNW,9.2,-,N/A,,Scattered Clouds,300,2013-03-26 16:52:00
1:52 PM,39.0,28.0,65,30.07,10.0,WNW,15.0,-,0.00,,Overcast,290,2013-03-26 17:52:00
2:52 PM,39.9,27.0,60,30.07,10.0,NW,10.4,-,N/A,,Overcast,310,2013-03-26 18:52:00
3:52 PM,41.0,25.0,53,30.06,10.0,Variable,5.8,-,N/A,,Overcast,0,2013-03-26 19:52:00
4:52 PM,37.9,28.9,70,30.08,9.0,West,10.4,-,0.00,,Overcast,280,2013-03-26 20:52:00
5:52 PM,37.9,28.0,68,30.08,10.0,West,9.2,-,N/A,,Overcast,260,2013-03-26 21:52:00
6:52 PM,37.9,26.1,62,30.10,10.0,West,11.5,-,N/A,,Overcast,280,2013-03-26 22:52:00
7:52 PM,37.0,26.1,65,30.12,10.0,West,12.7,-,N/A,,Overcast,280,2013-03-26 23:52:00
8:52 PM,35.1,27.0,72,30.14,10.0,WNW,10.4,-,N/A,,Overcast,290,2013-03-27 00:52:00
9:52 PM,35.1,28.0,76,30.15,10.0,West,11.5,-,N/A,,Overcast,280,2013-03-27 01:52:00
10:52 PM,35.1,27.0,72,30.15,10.0,West,10.4,-,N/A,,Overcast,280,2013-03-27 02:52:00
11:52 PM,34.0,28.0,79,30.15,10.0,West,13.8,-,N/A,,Overcast,280,2013-03-27 03:52:00